Home   Weather   Coimbra   Past weeks

Flag for Portugal Past Weather in Coimbra, Portugal — Yesterday and Last 2 Weeks

Now
50 °F

Clear.


Feels Like: 47 °F
Forecast: 37 / 64 °F
Wind: 7 mph from Southeast

Location: Porto / Pedras Rubras

Current Time: Apr 29, 2017 at 12:57:59 am

Latest Report: Apr 29, 2017 at 12:30 am


Visibility: 10 mi

Pressure: 29.86 "Hg

Humidity: 62%

Dew Point: 37 °F

Location of CoimbraLocation

Past Weather in Coimbra — Graph

°F

Coimbra Temperature Yesterday

Maximum temperature yesterday: 68 °F (at 1:30 pm)
Minimum temperature yesterday: 50 °F (at 4:30 am)
Average temperature yesterday: 57 °F

High & Low Weather Summary for the Past Weeks

 TemperatureHumidityPressure
High82 °F (Apr 19, 5:30 pm)100% (Apr 23, 12:30 am)30.12 "Hg (Apr 23, 12:30 am)
Low45 °F (Apr 26, 6:00 am)15% (Apr 27, 3:30 pm)29.77 "Hg (Apr 19, 6:30 pm)
Average61 °F58%29.96 "Hg
* Reported Apr 19 8:00 am — Apr 28 11:30 pm, Coimbra, Weather by CustomWeather, © 2017

Note: Actual official high and low records may vary slightly from our data, if they occured in-between our weather recording intervals... More about our weather records

Advertising

Coimbra Weather History for the Previous 24 Hours

Scroll right to see more
 ConditionsComfort  
Time TempWeatherWind HumidityBarometerVisibility
11:30 pm
Fri, Apr 28
50 °FClear.2 mph62%29.86 "Hg10 mi
11:00 pm54 °FClear.2 mph54%29.86 "Hg10 mi
10:30 pm54 °FPassing clouds.7 mph58%29.86 "HgN/A
9:30 pm54 °FClear.7 mph72%29.86 "Hg10 mi
9:00 pm54 °FClear.9 mph67%29.86 "Hg10 mi
8:30 pm55 °FClear.6 mph59%29.86 "Hg10 mi
8:00 pm59 °FSunny.8 mph48%29.86 "Hg10 mi
7:30 pm59 °FSunny.9 mph45%29.86 "Hg10 mi
7:00 pm61 °FPassing clouds.9 mph34%29.86 "HgN/A
6:30 pm61 °FPassing clouds.9 mph42%29.86 "HgN/A
6:00 pm61 °FSunny.12 mph36%29.86 "Hg10 mi
5:30 pm63 °FSunny.13 mph32%29.86 "Hg10 mi
5:00 pm63 °FPassing clouds.13 mph34%29.86 "HgN/A
4:30 pm63 °FPassing clouds.13 mph32%29.86 "HgN/A
4:00 pm63 °FPassing clouds.14 mph39%29.89 "HgN/A
3:30 pm61 °FPassing clouds.14 mph36%29.89 "HgN/A
3:00 pm63 °FPassing clouds.12 mph37%29.89 "HgN/A
2:30 pm64 °FPassing clouds.10 mph34%29.89 "HgN/A
2:00 pm68 °FSunny.6 mph20%29.89 "Hg10 mi
1:30 pm68 °FPassing clouds.8 mph18%29.89 "HgN/A
1:00 pm66 °FPassing clouds.13 mph21%29.92 "HgN/A
12:30 pm64 °FPassing clouds.13 mph22%29.92 "HgN/A
12:00 pm63 °FPassing clouds.15 mph27%29.92 "HgN/A
11:30 am63 °FPassing clouds.15 mph25%29.92 "HgN/A
11:00 am59 °FPassing clouds.14 mph29%29.92 "HgN/A
10:30 am59 °FSunny.15 mph31%29.95 "Hg10 mi
10:00 am57 °FPassing clouds.15 mph29%29.95 "HgN/A
9:30 am54 °FSunny.17 mph33%29.95 "Hg10 mi
8:30 am52 °FSunny.16 mph32%29.95 "Hg10 mi
8:00 am50 °FSunny.17 mph35%29.95 "Hg10 mi
7:30 am50 °FSunny.13 mph35%29.95 "Hg10 mi
7:00 am50 °FPassing clouds.15 mph35%29.92 "HgN/A
6:30 am50 °FClear.13 mph35%29.92 "Hg10 mi
6:00 am50 °FClear.12 mph35%29.92 "Hg10 mi
5:30 am50 °FClear.12 mph37%29.92 "Hg10 mi
5:00 am50 °FPassing clouds.10 mph37%29.92 "HgN/A
4:30 am50 °FClear.13 mph37%29.95 "Hg10 mi
4:00 am52 °FClear.15 mph35%29.95 "Hg10 mi
3:30 am52 °FClear.15 mph38%29.95 "Hg10 mi
3:00 am54 °FClear.14 mph33%29.95 "Hg10 mi
2:30 am54 °FClear.15 mph33%29.95 "Hg10 mi
2:00 am54 °FClear.12 mph33%29.95 "Hg10 mi
1:30 am54 °FClear.12 mph30%29.98 "Hg10 mi
1:00 am55 °FClear.8 mph28%29.98 "Hg10 mi
12:30 am55 °FClear.7 mph28%29.98 "Hg10 mi
12:00 am55 °FClear.6 mph28%29.95 "Hg10 mi
Weather by CustomWeather, © 2017

See weather overviewHow to use our weather pages